TimeEDT,TemperatureF,Dew PointF,Humidity,Sea Level PressureIn,VisibilityMPH,Wind Direction,Wind SpeedMPH,Gust SpeedMPH,PrecipitationIn,Events,Conditions,WindDirDegrees,DateUTC
12:45 AM,75.2,71.6,89,30.23,10.0,Calm,Calm,-,N/A,,Clear,0,2013-07-04 04:45:00
1:45 AM,73.4,71.6,94,30.23,10.0,West,5.8,-,N/A,,Clear,270,2013-07-04 05:45:00
2:45 AM,73.4,71.6,94,30.22,10.0,Calm,Calm,-,N/A,,Clear,0,2013-07-04 06:45:00
4:45 AM,73.4,73.4,100,30.23,6.0,Calm,Calm,-,N/A,,Overcast,0,2013-07-04 08:45:00
6:45 AM,75.2,73.4,94,30.25,6.0,Calm,Calm,-,N/A,,Mostly Cloudy,0,2013-07-04 10:45:00
7:45 AM,75.2,73.4,94,30.26,10.0,Calm,Calm,-,N/A,,Mostly Cloudy,0,2013-07-04 11:45:00
8:50 AM,75.2,73.4,94,30.26,10.0,West,6.9,-,N/A,,Mostly Cloudy,270,2013-07-04 12:50:00
9:45 AM,80.6,73.4,79,30.26,15.0,SW,9.2,-,N/A,,Mostly Cloudy,230,2013-07-04 13:45:00
10:45 AM,80.6,73.4,79,30.26,15.0,WSW,8.1,-,N/A,,Mostly Cloudy,250,2013-07-04 14:45:00
11:45 AM,84.2,73.4,70,30.24,15.0,WSW,9.2,-,N/A,,Mostly Cloudy,250,2013-07-04 15:45:00
12:45 PM,84.2,73.4,70,30.23,15.0,SW,11.5,-,N/A,,Scattered Clouds,230,2013-07-04 16:45:00
1:50 PM,86.0,71.6,62,30.22,20.0,SW,13.8,-,N/A,,Scattered Clouds,230,2013-07-04 17:50:00
2:50 PM,87.8,71.6,58,30.20,15.0,WSW,17.3,-,N/A,,Scattered Clouds,250,2013-07-04 18:50:00
3:50 PM,87.8,71.6,58,30.18,15.0,SW,17.3,-,N/A,,Scattered Clouds,230,2013-07-04 19:50:00
5:55 PM,86.0,73.4,66,30.16,20.0,WSW,17.3,-,N/A,,Scattered Clouds,240,2013-07-04 21:55:00
6:50 PM,86.0,73.4,66,30.16,20.0,WSW,13.8,-,N/A,,Partly Cloudy,240,2013-07-04 22:50:00
7:50 PM,84.2,73.4,70,30.17,20.0,WSW,11.5,-,N/A,,Clear,240,2013-07-04 23:50:00
8:50 PM,82.4,73.4,74,30.18,10.0,SW,8.1,-,N/A,,Clear,230,2013-07-05 00:50:00
9:50 PM,80.6,73.4,79,30.19,10.0,SW,8.1,-,N/A,,Clear,230,2013-07-05 01:50:00
10:45 PM,80.6,73.4,79,30.20,10.0,WSW,6.9,-,N/A,,Clear,240,2013-07-05 02:45:00
11:45 PM,78.8,71.6,78,30.22,10.0,West,8.1,-,N/A,,Clear,260,2013-07-05 03:45:00